FW2876 Weather Reports


time (UTC)temp
C
wind
direction
speed
KPH
gust
KPH
rain 1hr
cm
rain 24hr
cm
rain mn
cm
humidity
%
barometer
mb
20260906220020 33 360 6.4 17.7 0.00 0.00 0.00 29 1008.7
20260906214518 33 360 9.7 29.0 0.00 0.00 0.00 31 1008.9
20260906213016 35 360 24.1 38.6 0.00 0.00 0.00 27 1008.8
20260906211515 35 360 9.7 19.3 0.00 0.00 0.00 26 1009.0
20260906210016 36 360 6.4 19.3 0.00 0.00 0.00 25 1009.3
20260906204510 35 360 12.9 22.5 0.00 0.00 0.00 26 1009.6
20260906203025 35 360 4.8 22.5 0.00 0.00 0.00 26 1009.7
20260906201507 35 360 6.4 22.5 0.00 0.00 0.00 26 1009.9
20260906200004 35 360 14.5 24.1 0.00 0.00 0.00 26 1010.2
20260906194501 35 360 14.5 20.9 0.00 0.00 0.00 27 1010.3
20260906193100 35 360 12.9 24.1 0.00 0.00 0.00 27 1010.5
20260906191606 35 360 8.0 30.6 0.00 0.00 0.00 28 1010.6
20260906190055 34 360 9.7 29.0 0.00 0.00 0.00 28 1010.8
20260906184553 35 360 14.5 24.1 0.00 0.00 0.00 28 1011.1
20260906183101 33 360 14.5 20.9 0.00 0.00 0.00 28 1011.2
20260906181550 33 360 12.9 24.1 0.00 0.00 0.00 30 1011.5
20260906180104 33 360 9.7 29.0 0.00 0.00 0.00 30 1011.6
20260906174559 33 360 14.5 27.4 0.00 0.00 0.00 31 1011.9
20260906173046 33 360 11.3 20.9 0.00 0.00 0.00 31 1012.1
20260906171603 34 360 14.5 25.7 0.00 0.00 0.00 31 1012.3
20260906170046 33 360 14.5 22.5 0.00 0.00 0.00 32 1012.4
20260906164540 33 360 8.0 19.3 0.00 0.00 0.00 33 1012.6
20260906163036 33 360 11.3 22.5 0.00 0.00 0.00 33 1012.6
20260906161546 32 360 12.9 20.9 0.00 0.00 0.00 33 1012.5
20260906160033 32 54 0.0 8.0 0.00 0.00 0.00 36 1012.4
20260906154528 31 299 1.6 11.3 0.00 0.00 0.00 37 1012.5
20260906153040 31 296 3.2 11.3 0.00 0.00 0.00 38 1012.5
20260906151524 30 284 3.2 14.5 0.00 0.00 0.00 40 1012.5
20260906150022 30 360 6.4 14.5 0.00 0.00 0.00 42 1012.5
20260906144523 30 360 6.4 9.7 0.00 0.00 0.00 44 1012.4
20260906143013 28 360 4.8 9.7 0.00 0.00 0.00 45 1012.6
20260906141511 27 360 4.8 12.9 0.00 0.00 0.00 48 1012.5
20260906140011 26 360 4.8 8.0 0.00 0.00 0.00 50 1012.4
20260906134508 25 360 3.2 8.0 0.00 0.00 0.00 52 1012.4
20260906133009 25 360 0.0 0.0 0.00 0.00 0.00 51 1012.3
20260906131507 24 360 0.0 0.0 0.00 0.00 0.00 55 1012.3
20260906130010 23 360 0.0 0.0 0.00 0.00 0.00 56 1012.1
20260906124504 23 360 0.0 0.0 0.00 0.00 0.00 57 1011.9
20260906123007 23 209 0.0 0.0 0.00 0.00 0.00 57 1011.7
20260906121504 23 209 0.0 0.0 0.00 0.00 0.00 56 1011.4
20260906120106 23 360 1.6 8.0 0.00 0.00 0.00 56 1011.5
20260906114559 23 360 3.2 4.8 0.00 0.00 0.00 55 1011.2
20260906113058 24 360 3.2 6.4 0.00 0.00 0.00 55 1011.2
20260906111553 24 360 1.6 6.4 0.00 0.00 0.00 54 1011.2
20260906110051 25 360 0.0 0.0 0.00 0.00 0.00 55 1010.9
20260906104551 25 360 0.0 6.4 0.00 0.00 0.00 54 1010.8
20260906103050 25 360 3.2 9.7 0.00 0.00 0.00 54 1010.5
20260906101547 25 360 0.0 0.0 0.00 0.00 0.00 52 1010.5
20260906100045 26 360 0.0 0.0 0.00 0.00 0.00 51 1010.3
20260906094556 26 360 0.0 0.0 0.00 0.00 0.00 52 1010.3
20260906093049 26 360 0.0 0.0 0.00 0.00 0.00 51 1010.3
20260906091542 26 360 0.0 6.4 0.00 0.00 0.00 51 1010.2
20260906090050 26 360 3.2 8.0 0.00 0.00 0.00 49 1010.2
20260906084539 27 360 14.5 24.1 0.00 0.00 0.00 48 1010.1
20260906083040 27 360 6.4 9.7 0.00 0.00 0.00 47 1010.2
20260906081536 27 360 11.3 17.7 0.00 0.00 0.00 46 1010.0
20260906080038 27 360 12.9 20.9 0.00 0.00 0.00 46 1010.0
20260906074533 27 360 6.4 14.5 0.00 0.00 0.00 45 1010.1
20260906073028 27 360 4.8 9.7 0.00 0.00 0.00 43 1010.1
20260906071528 27 360 6.4 14.5 0.00 0.00 0.00 42 1010.4
20260906070023 27 360 6.4 14.5 0.00 0.00 0.00 41 1010.6
20260906064520 28 360 8.0 17.7 0.00 0.00 0.00 39 1010.5
20260906063019 28 360 11.3 19.3 0.00 0.00 0.00 39 1010.9
20260906061516 28 360 11.3 19.3 0.00 0.00 0.00 39 1011.1
20260906060020 28 360 11.3 19.3 0.00 0.00 0.00 38 1011.1
20260906054510 28 360 12.9 22.5 0.00 0.00 0.00 37 1011.2
20260906053008 28 360 11.3 20.9 0.00 0.00 0.00 37 1011.1
20260906051508 29 360 9.7 19.3 0.00 0.00 0.00 36 1011.1
20260906050100 28 360 9.7 16.1 0.00 0.00 0.00 37 1011.1
20260906044600 29 360 8.0 16.1 0.00 0.00 0.00 38 1011.2
20260906043059 29 360 9.7 19.3 0.00 0.00 0.00 37 1011.0
20260906041600 29 360 9.7 17.7 0.00 0.00 0.00 37 1011.0
20260906040059 30 360 12.9 20.9 0.00 0.00 0.00 36 1010.8
20260906034605 30 360 8.0 19.3 0.00 0.00 0.00 34 1010.7
20260906033057 31 360 20.9 27.4 0.00 0.00 0.00 32 1010.6
20260906031557 31 360 16.1 27.4 0.00 0.00 0.00 31 1010.3
20260906030056 31 360 20.9 29.0 0.00 0.00 0.00 30 1010.1
20260906024558 32 360 17.7 27.4 0.00 0.00 0.00 30 1009.8
20260906023055 32 360 17.7 25.7 0.00 0.00 0.00 31 1009.9
20260906021600 32 360 17.7 24.1 0.00 0.00 0.00 31 1009.7
20260906020157 32 360 16.1 19.3 0.00 0.00 0.00 31 1009.5
20260906014553 33 360 14.5 24.1 0.00 0.00 0.00 30 1009.1
20260906013054 33 360 17.7 22.5 0.00 0.00 0.00 29 1008.8
20260906011552 33 360 9.7 17.7 0.00 0.00 0.00 28 1008.5
20260906010125 34 360 11.3 20.9 0.00 0.00 0.00 28 1008.4
20260906004608 35 360 8.0 14.5 0.00 0.00 0.00 27 1008.6
20260906003051 35 360 12.9 20.9 0.00 0.00 0.00 26 1008.5
20260906001601 35 360 16.1 27.4 0.00 0.00 0.00 26 1008.6
20260906000052 35 360 20.9 29.0 0.00 0.00 0.00 26 1008.5
20260905234548 36 360 17.7 24.1 0.00 0.00 0.00 25 1008.4
20260905233049 36 360 16.1 22.5 0.00 0.00 0.00 25 1008.3
20260905231548 36 360 12.9 22.5 0.00 0.00 0.00 25 1008.3
20260905230047 36 360 11.3 20.9 0.00 0.00 0.00 25 1008.3
20260905224545 36 360 16.1 24.1 0.00 0.00 0.00 25 1008.4
20260905223051 36 360 3.2 27.4 0.00 0.00 0.00 26 1008.7
20260905221544 35 360 11.3 16.1 0.00 0.00 0.00 26 1008.6